Wind_Speed
63 63 62 57 55 61 63 65 59 56 53 56 46 47 45 38 40 39 29 18 20 20 19 17 18 20 22 22 25 24 31 33 31 31 30 30 31 30 31 33 32 30 29 31
60 61 50 51 58 59 61 62 61 60 58 56 49 50 36 35 31 30 21 20 21 17 15 20 20 17 18 23 26 26 27 26 29 28 28 30 30 29 32 30 26 28 28 33
62 42 47 49 49 52 52 56 55 56 59 50 47 44 40 31 28 25 20 18 20 18 20 20 16 15 19 24 22 20 21 22 25 26 27 29 29 29 31 23 25 26 27 29
60 51 51 50 50 47 47 44 44 48 55 44 38 49 35 26 26 25 20 13 15 18 23 15 14 15 22 24 17 18 19 22 26 26 29 28 28 29 25 23 25 21 25 27
59 59 57 50 45 39 37 38 38 44 45 43 42 50 14 22 24 23 24 16 16 17 15 11 13 13 21 16 16 17 20 23 24 27 29 28 28 25 22 24 22 23 22 23
61 59 53 50 43 39 34 34 35 42 44 50 45 39 19 14 17 24 24 19 19 19 16 12 14 17 19 14 16 17 19 20 23 28 26 27 24 19 22 22 20 18 20 15
64 63 57 55 47 45 42 36 37 36 41 49 36 34 10 4 18 23 21 23 17 22 18 12 14 16 13 14 17 17 18 19 24 24 24 22 20 22 21 19 18 17 16 8
66 64 59 54 49 41 37 36 42 41 47 46 27 35 16 14 13 13 25 24 20 20 16 12 14 13 12 15 16 14 16 20 21 22 21 17 20 19 19 17 13 17 10 3
64 63 57 53 46 41 36 43 36 37 39 33 31 25 17 16 13 24 15 18 22 18 15 14 11 8 12 13 11 10 13 17 18 20 16 16 16 15 19 13 11 12 7 3
64 65 60 54 49 48 44 31 36 41 44 39 29 27 18 14 18 24 12 20 22 16 15 12 7 6 8 11 8 8 13 13 17 18 14 16 16 12 15 12 12 10 7 8
63 65 62 61 55 52 50 48 49 44 41 38 32 28 15 15 21 20 16 19 19 15 15 8 6 4 7 10 5 8 11 12 16 16 13 16 15 13 13 13 17 11 9 9
65 65 62 58 56 49 49 45 39 39 38 36 35 26 17 18 23 24 19 21 17 18 11 5 4 4 6 8 5 8 10 12 15 15 11 14 15 12 13 12 14 12 9 9
68 67 62 60 58 55 52 47 49 49 46 43 40 34 22 16 21 26 23 23 19 17 6 4 2 2 5 7 6 7 10 12 12 12 10 11 14 11 11 14 12 13 10 7
67 68 64 60 55 53 53 54 50 49 47 45 42 32 21 24 23 23 26 26 21 13 5 4 1 1 3 6 7 6 9 11 9 11 10 10 13 12 10 13 13 11 11 8
61 67 65 60 58 55 52 49 51 48 43 44 35 27 24 23 25 26 26 26 19 13 6 5 3 2 1 5 7 6 8 8 7 10 8 9 14 13 13 14 17 11 9 7
60 63 66 60 55 57 54 48 47 46 43 38 28 25 31 33 32 28 28 24 20 12 7 5 5 3 2 3 7 6 7 8 7 9 9 10 15 15 15 15 16 13 15 14
59 62 66 59 58 54 56 47 44 43 43 33 28 31 36 34 34 30 26 27 19 14 9 5 6 4 4 2 6 8 6 8 6 9 10 12 15 14 14 15 15 16 17 15
50 63 63 59 58 57 51 51 44 43 36 27 37 41 37 32 32 31 30 28 18 14 10 7 6 5 7 4 4 7 5 6 6 8 10 10 11 12 12 14 15 17 20 20
42 54 63 56 60 54 50 51 50 48 41 33 42 45 43 41 40 34 32 30 22 15 13 8 8 7 8 7 4 6 6 4 5 6 9 10 11 11 12 14 14 16 19 22
38 45 52 61 58 58 56 51 49 42 39 38 44 49 45 42 38 34 31 29 24 18 14 8 9 10 9 8 5 5 6 4 5 4 8 10 11 11 11 14 15 16 18 20
35 42 45 54 60 60 60 55 45 43 45 43 45 50 49 42 33 35 34 32 23 18 14 12 9 10 9 10 8 4 4 4 4 5 5 8 8 9 9 10 11 13 15 18
27 33 42 50 58 59 53 58 54 50 46 43 42 48 48 43 39 37 35 33 30 20 19 13 10 9 11 9 9 6 3 3 3 5 4 5 5 6 8 10 12 12 14 17
27 26 31 38 45 56 59 60 59 53 42 44 42 44 47 45 42 39 34 35 30 22 21 17 14 10 11 10 8 9 7 3 3 4 5 4 3 4 6 10 13 15 15 17
33 24 28 34 37 42 56 61 60 55 46 42 44 40 46 46 46 42 37 35 32 29 24 21 16 12 8 12 10 9 9 6 4 4 6 5 5 4 5 7 11 12 14 16
29 28 30 32 35 37 45 53 59 55 55 45 45 41 42 44 46 43 39 36 33 30 28 23 19 15 12 11 13 10 11 9 8 7 6 6 5 6 7 7 10 10 9 9
20 34 29 33 34 37 41 43 50 54 50 54 45 44 40 42 40 40 37 33 30 32 30 27 24 21 18 15 13 15 12 10 10 11 9 8 8 7 8 8 7 9 9 6
Wind_Direction
238 235 238 246 254 252 253 256 258 261 263 264 274 277 277 271 274 279 278 270 248 249 249 269 241 243 263 287 297 294 288 299 306 302 309 313 314 321 320 318 318 316 316 317
239 244 243 243 247 251 252 256 257 260 261 268 269 267 261 260 264 264 268 252 248 257 262 257 254 267 293 301 290 288 291 300 298 303 312 313 320 323 322 320 318 320 317 318
241 249 247 241 247 251 253 258 259 261 260 265 264 251 250 250 252 253 246 248 249 254 254 255 269 282 319 310 292 292 295 295 302 311 313 317 323 321 324 320 316 321 320 319
237 238 238 234 236 242 249 256 254 253 255 256 250 249 241 239 241 241 235 245 252 258 251 263 271 287 308 308 293 295 292 300 310 314 317 319 321 318 318 314 318 322 318 318
236 238 237 230 236 244 261 256 245 246 251 254 233 246 197 228 232 230 230 250 249 247 237 257 287 292 315 295 300 305 301 303 312 316 321 323 320 317 313 314 321 317 319 323
227 231 232 232 232 237 247 241 236 239 243 241 231 246 182 229 239 229 230 252 243 236 241 264 285 292 305 291 299 306 313 314 316 320 327 324 325 320 314 321 322 324 324 326
222 228 226 226 227 225 230 219 226 229 224 232 230 234 142 190 236 239 239 248 237 236 247 270 286 290 297 288 302 306 314 317 319 328 327 331 325 325 326 325 324 324 331 341
218 221 223 223 227 228 236 229 217 214 219 233 232 235 180 231 244 240 235 244 228 229 254 266 283 297 292 302 311 305 314 321 326 329 335 331 335 345 343 335 335 340 344 30
212 219 221 221 224 223 217 213 210 219 229 239 227 233 203 227 240 252 248 240 226 237 250 266 290 304 312 313 309 316 325 327 338 346 346 344 350 6 355 347 353 359 19 75
206 213 214 217 216 217 212 219 218 221 229 234 224 229 224 228 236 249 241 211 226 234 248 264 281 319 323 327 321 331 333 343 350 351 356 355 354 347 4 24 18 20 56 118
199 207 211 212 212 217 217 207 213 219 228 236 236 234 229 234 234 238 221 234 229 232 247 267 270 283 319 338 335 338 343 346 346 351 359 5 3 15 11 25 31 40 72 117
197 204 209 210 213 213 216 220 228 234 234 240 248 247 236 238 226 235 226 227 228 239 245 270 247 255 319 350 350 342 352 351 347 354 359 10 8 19 24 38 34 49 79 96
200 204 203 206 208 209 213 216 218 225 233 234 244 247 242 225 219 231 230 233 234 237 228 224 244 241 313 4 357 349 359 355 355 8 7 14 8 22 38 30 34 45 63 97
204 201 203 206 208 210 212 213 216 225 231 235 237 238 229 210 214 209 219 234 234 225 200 186 160 206 325 9 6 3 10 360 360 25 22 18 13 24 54 52 54 59 58 78
207 201 203 205 205 209 212 213 219 224 228 233 234 229 207 197 203 205 212 223 233 220 192 181 141 174 297 15 14 19 16 5 0 32 28 20 43 54 55 45 41 58 71 48
209 204 202 203 205 207 211 212 215 217 224 229 219 188 184 197 197 202 206 217 215 215 195 189 168 153 214 29 23 32 25 12 29 50 47 49 66 65 61 51 53 63 69 44
213 204 203 200 207 206 210 210 215 217 219 207 190 173 191 200 196 199 205 199 203 215 192 189 176 183 197 81 36 42 38 23 44 65 65 62 72 68 70 64 63 60 55 40
212 208 205 200 204 208 206 209 215 219 217 204 173 181 185 194 198 198 200 188 206 210 196 169 168 184 189 136 71 52 48 42 52 75 81 72 68 68 68 71 64 65 61 54
201 214 212 205 203 205 207 210 213 214 211 193 176 185 186 189 194 192 192 183 189 206 229 182 181 183 181 150 112 66 51 73 67 71 87 82 74 71 69 74 68 60 61 61
197 213 215 206 200 203 207 207 212 211 207 193 180 189 195 195 193 188 191 186 188 204 208 205 190 192 191 175 150 96 61 81 94 85 88 93 86 79 72 70 69 66 64 64
196 211 219 212 203 205 207 208 211 211 200 191 184 192 197 202 192 191 193 185 188 208 217 215 198 189 188 188 181 147 90 70 111 113 105 104 91 82 79 72 67 73 77 77
206 207 219 219 212 211 210 213 208 209 201 192 190 191 199 200 197 195 193 186 183 207 219 208 219 193 193 187 189 178 139 105 120 126 138 129 107 81 81 82 87 86 86 87
222 210 208 218 220 216 211 213 209 212 204 198 197 193 199 200 202 202 196 194 183 191 219 208 216 208 197 197 192 183 184 149 130 157 147 168 152 112 101 98 99 101 98 96
224 218 207 212 214 220 213 215 214 211 206 201 199 194 198 201 205 206 203 205 195 186 203 213 220 216 203 206 199 183 189 188 175 178 170 163 172 166 146 124 121 111 107 103
225 198 193 212 216 219 213 215 216 217 212 205 204 197 198 200 204 205 207 210 204 194 195 212 227 228 223 218 206 194 189 198 190 184 178 173 175 177 178 166 151 143 127 118
224 220 198 197 215 223 223 215 216 215 217 211 205 204 194 198 202 203 208 213 209 202 198 205 217 225 227 230 203 206 203 199 188 192 186 181 181 187 191 192 186 171 166 158
Height
5729 5731 5736 5749 5756 5757 5761 5761 5768 5774 5780 5778 5783 5780 5784 5786 5783 5779 5778 5780 5781 5784 5786 5787 5787 5786 5786 5784 5780 5776 5773 5770 5767 5762 5758 5753 5749 5744 5739 5734 5730 5727 5721 5716
5713 5717 5738 5744 5742 5746 5751 5754 5757 5764 5770 5770 5774 5769 5774 5778 5777 5774 5776 5778 5780 5782 5783 5782 5782 5782 5780 5777 5773 5771 5768 5764 5762 5757 5753 5748 5743 5738 5733 5730 5726 5721 5716 5711
5703 5722 5730 5730 5733 5735 5740 5742 5753 5757 5760 5762 5760 5757 5764 5771 5770 5769 5773 5777 5778 5779 5778 5778 5778 5777 5775 5771 5768 5765 5763 5760 5756 5752 5748 5743 5738 5733 5729 5725 5721 5716 5710 5706
5693 5708 5708 5715 5719 5726 5730 5739 5740 5746 5747 5751 5752 5743 5758 5764 5764 5765 5770 5773 5773 5774 5775 5775 5774 5772 5770 5766 5764 5761 5758 5755 5751 5747 5743 5738 5733 5729 5725 5721 5717 5711 5706 5702
5688 5691 5695 5704 5715 5723 5727 5726 5730 5734 5738 5738 5745 5739 5756 5756 5758 5762 5766 5769 5770 5770 5770 5771 5769 5767 5765 5761 5760 5756 5754 5750 5747 5743 5738 5733 5729 5725 5721 5717 5712 5707 5702 5698
5668 5679 5687 5699 5706 5714 5715 5715 5718 5725 5730 5724 5737 5743 5751 5754 5754 5756 5761 5764 5764 5766 5767 5766 5765 5763 5760 5758 5756 5753 5749 5746 5743 5738 5734 5729 5725 5721 5717 5712 5708 5704 5700 5696
5652 5664 5676 5684 5692 5699 5701 5705 5709 5715 5718 5719 5735 5739 5746 5748 5749 5752 5756 5757 5759 5761 5764 5762 5761 5759 5755 5754 5751 5748 5746 5743 5739 5735 5730 5727 5723 5718 5713 5708 5704 5701 5698 5695
5638 5651 5663 5674 5682 5693 5699 5702 5702 5708 5711 5714 5731 5727 5742 5744 5746 5749 5751 5753 5756 5758 5759 5758 5757 5754 5752 5750 5747 5745 5743 5739 5736 5731 5728 5724 5720 5715 5710 5706 5703 5700 5697 5696
5625 5640 5654 5665 5676 5684 5691 5685 5702 5706 5708 5715 5722 5728 5736 5740 5743 5744 5748 5751 5753 5755 5755 5755 5752 5750 5748 5746 5743 5742 5740 5737 5733 5730 5726 5723 5718 5713 5710 5705 5702 5700 5697 5696
5610 5626 5641 5653 5664 5673 5678 5693 5696 5697 5699 5704 5715 5720 5731 5737 5739 5740 5746 5747 5749 5751 5753 5751 5749 5746 5746 5743 5741 5740 5738 5735 5732 5729 5725 5722 5716 5713 5710 5706 5703 5699 5697 5696
5599 5615 5629 5639 5651 5662 5669 5673 5680 5688 5695 5700 5709 5716 5728 5732 5733 5737 5742 5743 5746 5748 5750 5747 5745 5744 5744 5741 5739 5738 5736 5734 5731 5728 5724 5721 5716 5713 5710 5707 5704 5701 5698 5698
5586 5601 5616 5635 5645 5657 5665 5674 5683 5687 5693 5698 5704 5714 5722 5725 5729 5732 5738 5741 5743 5746 5746 5744 5742 5741 5741 5739 5738 5736 5735 5732 5730 5727 5724 5721 5717 5714 5711 5708 5706 5703 5701 5701
5575 5588 5606 5619 5632 5645 5653 5664 5670 5676 5683 5690 5697 5708 5717 5721 5725 5730 5735 5737 5741 5743 5742 5741 5740 5739 5739 5738 5736 5735 5733 5731 5729 5726 5724 5721 5718 5715 5713 5710 5708 5705 5705 5705
5564 5579 5597 5612 5630 5639 5645 5652 5660 5668 5676 5684 5691 5703 5714 5717 5721 5728 5731 5734 5738 5740 5739 5739 5737 5737 5738 5736 5735 5734 5732 5731 5729 5726 5724 5722 5718 5715 5714 5712 5710 5708 5706 5706
5561 5573 5589 5604 5617 5629 5639 5648 5654 5661 5672 5676 5691 5699 5706 5713 5718 5723 5727 5731 5736 5737 5736 5736 5735 5736 5736 5736 5734 5733 5732 5731 5728 5727 5725 5722 5719 5717 5716 5714 5712 5710 5708 5706
5557 5569 5582 5599 5611 5621 5631 5641 5649 5656 5664 5672 5684 5695 5699 5705 5710 5717 5723 5729 5732 5733 5734 5733 5733 5734 5735 5735 5734 5733 5732 5731 5729 5727 5725 5723 5722 5720 5718 5716 5714 5712 5710 5708
5554 5563 5575 5593 5602 5614 5626 5638 5644 5652 5656 5668 5678 5689 5693 5699 5705 5713 5719 5725 5728 5730 5731 5732 5731 5733 5734 5734 5734 5733 5732 5732 5730 5728 5727 5725 5724 5723 5721 5720 5718 5716 5714 5710
5549 5559 5569 5584 5596 5607 5623 5631 5639 5646 5656 5668 5675 5677 5686 5697 5703 5707 5714 5719 5723 5727 5728 5729 5729 5731 5732 5733 5734 5733 5732 5732 5731 5730 5729 5727 5727 5726 5725 5723 5722 5720 5717 5714
5546 5555 5563 5578 5589 5606 5616 5623 5629 5637 5648 5661 5668 5672 5677 5684 5690 5700 5709 5714 5718 5723 5726 5727 5728 5730 5731 5732 5733 5733 5732 5732 5732 5731 5730 5729 5729 5729 5728 5727 5726 5724 5721 5719
5545 5551 5560 5573 5587 5598 5603 5616 5624 5635 5646 5654 5663 5669 5674 5681 5689 5699 5707 5711 5714 5719 5722 5725 5727 5728 5730 5731 5732 5732 5732 5732 5732 5733 5732 5732 5732 5731 5731 5731 5730 5728 5727 5724
5543 5548 5558 5569 5581 5589 5598 5609 5619 5630 5641 5647 5657 5664 5671 5679 5692 5696 5701 5705 5711 5716 5720 5723 5725 5726 5728 5730 5731 5732 5732 5732 5733 5733 5733 5733 5734 5734 5734 5734 5734 5732 5731 5730
5542 5549 5556 5566 5575 5586 5593 5603 5614 5620 5634 5644 5653 5661 5668 5678 5685 5691 5697 5701 5704 5713 5716 5720 5723 5724 5726 5728 5729 5731 5732 5732 5733 5733 5734 5734 5735 5736 5736 5737 5737 5737 5736 5735
5543 5548 5554 5565 5572 5578 5589 5596 5605 5617 5630 5640 5649 5658 5666 5674 5681 5688 5694 5698 5701 5706 5714 5717 5720 5722 5724 5726 5727 5729 5731 5732 5733 5733 5734 5735 5736 5737 5738 5739 5740 5741 5740 5740
5540 5547 5552 5559 5567 5574 5583 5591 5601 5613 5625 5636 5645 5655 5663 5670 5676 5683 5690 5695 5699 5701 5708 5713 5717 5719 5722 5724 5725 5728 5729 5731 5732 5733 5734 5735 5736 5737 5739 5740 5742 5743 5744 5745
5537 5545 5548 5555 5564 5570 5578 5587 5598 5608 5620 5631 5641 5651 5658 5666 5671 5679 5686 5691 5696 5699 5703 5710 5713 5716 5719 5721 5723 5725 5727 5728 5730 5732 5734 5735 5736 5737 5739 5741 5742 5744 5746 5747
5535 5541 5547 5553 5560 5567 5575 5585 5593 5603 5613 5626 5635 5646 5654 5661 5667 5674 5681 5686 5692 5696 5700 5704 5709 5712 5715 5718 5720 5722 5724 5726 5728 5731 5732 5734 5735 5737 5739 5740 5742 5744 5745 5748